Weather History for Rawlins, WY

Change the Weather History Date:

Friday, October 26, 2012

  Actual Average Record
Temperature  
Mean Temperature 26 °F 40 °F  
Max Temperature 32 °F 52 °F 70 °F (1999)
Min Temperature 20 °F 27 °F 14 °F (2011)
Degree Days  
Heating Degree Days 39 25  
Month to date heating degree days 547 538  
Since 1 July heating degree days 769 924  
Cooling Degree Days 0 0  
Month to date cooling degree days 0 0  
Year to date cooling degree days 419 186  
Moisture  
Dew Point 20 °F    
Average Humidity 77    
Maximum Humidity 96    
Minimum Humidity 58    
Precipitation  
Precipitation 0.01 in 0.02 in 0.26 in (2006)
Month to date precipitation 0.37 0.65  
Year to date precipitation 4.24 8.17  
Sea Level Pressure  
Sea Level Pressure 30.34 in    
Wind  
Wind Speed 14 mph (WSW)    
Max Wind Speed 30 mph    
Max Gust Speed 36 mph    
Visibility 9 miles    
Events Snow    
T = Trace of Precipitation, MM = Missing Value Source: NWS Daily Summary

Daily Weather History Graph

Daily Weather History Graph

Search for Another Location

Airport:

Trip Planner

Search our weather history database for the weather conditions in past years. The results will help you decide how hot, cold, wet, or windy it might be!

Date:

Astronomy

Oct. 26, 2012 Rise Set
Actual Time 7:34 AM MDT 6:10 PM MDT
Civil Twilight 7:05 AM MDT 6:38 PM MDT
Nautical Twilight 6:33 AM MDT 7:11 PM MDT
Astronomical Twilight 6:00 AM MDT 7:43 PM MDT
Moon 4:29 PM MDT (10/26) 4:31 AM MDT (10/26)
Length of Visible Light 11h 32m
Length of Day
10h 35m
Waxing Gibbous, 91% of the Moon is Illuminated
Oct 26
Waxing Gibbous
Oct 29
Full
Nov 6
Last Quarter
Nov 13
New
Nov 20
First Quarter

Hourly Weather History & Observations

Time (MDT) Temp. Windchill Dew Point Humidity Pressure Visibility Wind Dir Wind Speed Gust Speed Precip Events Conditions
12:13 AM 24.8 °F 16.1 °F 21.2 °F 86% 30.24 in 10.0 mi West 8.1 mph - N/A   Overcast
12:40 AM 24.8 °F 16.1 °F 21.2 °F 86% 30.25 in 10.0 mi WSW 8.1 mph - N/A   Overcast
12:53 AM 25.0 °F 17.1 °F 23.0 °F 92% 30.34 in 9.0 mi WSW 6.9 mph - 0.00 in   Overcast
1:08 AM 24.8 °F 16.1 °F 23.0 °F 93% 30.25 in 1.8 mi West 8.1 mph - 0.00 in Snow Light Snow
1:13 AM 24.8 °F 16.9 °F 23.0 °F 93% 30.25 in 1.0 mi West 6.9 mph - 0.00 in Snow Light Snow
1:49 AM 24.8 °F 17.9 °F 21.2 °F 86% 30.27 in 3.0 mi NW 5.8 mph - 0.01 in Snow Light Snow
1:53 AM 25.0 °F 17.1 °F 21.9 °F 88% 30.36 in 5.0 mi NW 6.9 mph - 0.01 in Snow Light Snow
2:08 AM 24.8 °F 17.9 °F 21.2 °F 86% 30.27 in 10.0 mi West 5.8 mph - 0.00 in   Overcast
2:53 AM 24.1 °F 17.0 °F 21.0 °F 88% 30.38 in 10.0 mi WSW 5.8 mph - 0.00 in   Overcast
3:25 AM 24.8 °F 15.3 °F 21.2 °F 86% 30.29 in 10.0 mi West 9.2 mph - N/A   Overcast
3:53 AM 23.0 °F 11.7 °F 19.9 °F 88% 30.40 in 10.0 mi WSW 11.5 mph - N/A   Overcast
4:37 AM 23.0 °F 12.4 °F 21.2 °F 93% 30.31 in 10.0 mi West 10.4 mph - N/A   Overcast
4:53 AM 23.0 °F 11.7 °F 21.0 °F 92% 30.40 in 10.0 mi WSW 11.5 mph - N/A   Overcast
5:22 AM 23.0 °F 14.7 °F 21.2 °F 93% 30.32 in 3.0 mi West 6.9 mph - 0.00 in Snow Light Snow
5:31 AM 23.0 °F 15.8 °F 21.2 °F 93% 30.32 in 4.0 mi West 5.8 mph - 0.00 in Snow Light Snow
5:53 AM 23.0 °F 12.4 °F 19.9 °F 88% 30.43 in 7.0 mi WSW 10.4 mph - 0.00 in Snow Light Snow
6:19 AM 21.2 °F 10.1 °F 19.4 °F 93% 30.33 in 10.0 mi WSW 10.4 mph - 0.00 in   Overcast
6:53 AM 21.9 °F 11.7 °F 19.0 °F 89% 30.44 in 10.0 mi WSW 9.2 mph - 0.00 in   Overcast
7:18 AM 21.2 °F 10.1 °F 17.6 °F 86% 30.35 in 10.0 mi WSW 10.4 mph - N/A   Overcast
7:31 AM 21.2 °F 9.5 °F 17.6 °F 86% 30.35 in 10.0 mi WSW 11.5 mph - N/A   Overcast
7:53 AM 21.0 °F 10.6 °F 18.0 °F 88% 30.47 in 10.0 mi WSW 9.2 mph - N/A   Overcast
8:10 AM 21.2 °F 10.1 °F 17.6 °F 86% 30.35 in 10.0 mi WSW 10.4 mph - N/A   Overcast
8:53 AM 19.9 °F 8.6 °F 18.0 °F 92% 30.48 in 10.0 mi WSW 10.4 mph - N/A   Scattered Clouds
9:11 AM 21.2 °F 8.3 °F 17.6 °F 86% 30.37 in 10.0 mi SW 13.8 mph - N/A   Partly Cloudy
9:36 AM 21.2 °F 13.6 °F 19.4 °F 93% 30.37 in 10.0 mi WSW 5.8 mph - N/A   Mostly Cloudy
9:53 AM 23.0 °F 12.4 °F 18.0 °F 81% 30.48 in 10.0 mi West 10.4 mph 16.1 mph N/A   Mostly Cloudy
10:07 AM 24.8 °F 12.4 °F 17.6 °F 74% 30.38 in 10.0 mi WSW 15.0 mph - N/A   Scattered Clouds
10:29 AM 24.8 °F 12.4 °F 19.4 °F 80% 30.37 in 10.0 mi WSW 15.0 mph - N/A   Mostly Cloudy
10:53 AM 24.1 °F 12.0 °F 19.0 °F 81% 30.47 in 10.0 mi WSW 13.8 mph - N/A   Overcast
11:53 AM 27.0 °F 14.3 °F 19.9 °F 75% 30.45 in 10.0 mi WSW 17.3 mph 24.2 mph N/A   Mostly Cloudy
12:15 PM 28.4 °F 16.2 °F 23.0 °F 80% 30.34 in 10.0 mi SW 17.3 mph 26.5 mph N/A   Scattered Clouds
12:53 PM 30.0 °F 17.2 °F 21.0 °F 69% 30.39 in 10.0 mi WSW 20.7 mph 29.9 mph N/A   Partly Cloudy
1:53 PM 30.0 °F 15.4 °F 21.0 °F 69% 30.35 in 10.0 mi WSW 27.6 mph 34.5 mph N/A   Clear
2:53 PM 30.0 °F 16.0 °F 19.9 °F 66% 30.35 in 10.0 mi WSW 25.3 mph 28.8 mph N/A   Overcast
3:53 PM 32.0 °F 19.5 °F 19.9 °F 61% 30.31 in 10.0 mi WSW 21.9 mph 25.3 mph N/A   Mostly Cloudy
4:53 PM 30.0 °F 19.5 °F 18.0 °F 61% 30.31 in 10.0 mi WSW 13.8 mph 23.0 mph N/A   Clear
5:53 PM 28.9 °F 20.4 °F 19.0 °F 67% 30.28 in 10.0 mi SW 9.2 mph - N/A   Clear
6:53 PM 28.0 °F 18.6 °F 21.0 °F 75% 30.28 in 10.0 mi SW 10.4 mph - N/A   Partly Cloudy
7:53 PM 28.0 °F 19.3 °F 21.0 °F 75% 30.26 in 10.0 mi SW 9.2 mph - N/A   Mostly Cloudy
8:53 PM 28.0 °F 17.5 °F 19.9 °F 72% 30.27 in 10.0 mi WSW 12.7 mph - N/A   Overcast
9:53 PM 28.0 °F 20.8 °F 19.9 °F 72% 30.23 in 10.0 mi West 6.9 mph - N/A   Mostly Cloudy
10:53 PM 28.0 °F 16.5 °F 19.0 °F 69% 30.23 in 10.0 mi WSW 15.0 mph 21.9 mph N/A   Overcast
11:53 PM 28.0 °F 16.1 °F 19.0 °F 69% 30.20 in 5.0 mi WSW 16.1 mph 25.3 mph 0.00 in Snow Light Snow